Location: Waco, TX
(31.5480°N, 97.1670°W)
Time: 13:50:41

ISS - Pass Details

Date: 18 March 2018
Orbit: 403 x 406 km, 51.6° (Epoch: 21 March)

Event Time Altitude Azimuth Distance (km) Brightness Sun altitude
Rises 23:24:40 0° 246° (WSW) 2,313 - -46.1°
Reaches altitude 10° 23:26:55 10° 259° (WSW) 1,456 - -46.4°
Maximum altitude 23:29:48 28° 321° (NW) 791 - -46.9°
Drops below altitude 10° 23:32:41 10° 23° (NNE) 1,462 - -47.4°
Sets 23:34:58 0° 35° (NE) 2,325 - -47.8°
